Back to catalog

STARLINK-31285

AliveCommunicationsVLEO
NORAD 59244·PAYLOAD·🇺🇸 United States

Launched Mar 16, 2024 from Cape Canaveral Space Force Station

Loading…

Next Passes (next 24 hours)

TLE

FreshSource: CelesTrak SupGP

Epoch: Sep 14, 2026, 13:29 UTC

1 59244C 24049P   26257.56229167  .00031714  00000+0  11492-2 0  2574
2 59244  42.9999 156.5959 0001409 259.6881 149.5340 15.27548133    17

Track STARLINK-31285 in real time with AllMySat

Download on the App Store